SCP
0 0 0 0 0 0 0 0 0 0 0 0 0 0 0 0 0 0 0 0 0 0 0 0 0 0 0 0 0 0 0 0 0 0 0 0 -0 0
1 0 0 0 0 0 0 0 0 0 0 0 0 0 0 0 0 0 0 0 0 0 0 0 0 0 0 0 0 0 0 0 0 0 0 0 0 0
0 0 0 0 0 0 0 0 0 0 0 0 0 0 0 0 0 0 0 0 0 0 0 0 0 0 0 0 0 0 0 0 0 0 0 0 0 0
0 0 0 0 0 0 0 0 0 0 0 0 0 0 0 0 0 0 0 0 0 0 0 0 0 0 0 0 0 0 0 0 0 0 0 0 0 0
0 0 0 0 0 0 0 0 0 0 0 0 0 0 0 0 0 0 0 0 0 0 0 0 0 0 0 0 0 0 0 0 0 0 0 0 0 0
0 0 0 0 0 0 0 0 0 0 0 0 0 0 0 0 0 0 0 0 0 0 0 0 0 0 0 0 0 0 0 0 0 0 0 0 0 0
0 0 0 0 0 0 0 0 0 0 0 0 0 0 0 0 0 0 0 0 0 0 0 0 0 0 0 0 0 0 0 0 0 0 0 0 0 0
0 0 0 0 0 0 0 0 0 0 0 0 0 0 0 0 0 0 0 0 0 0 0 0 0 0 0 0 0 0 0 0 0 0 0 0 0 0
0 0 0 0 0 0 0 0 0 0 0 0 0 0 0 0 0 0 0 0 0 0 0 0 0 0 0 0 0 0 0 0 0 0 0 0 0 0
0 0 0 0 0 0 0 0 0 0 0 0 0 0 0 0 0 0 0 0 0 0 0 0 0 0 0 0 0 0 0 0 0 0 0 0 0 0
0 0 0 0 0 0 0 0 0 0 0 0 0 0 0 0 0 0 0 0 0 0 0 0 0 0 0 0 0 0 0 0 0 0 0 0 0 0
0 0 0 0 0 0 0 0 0 0 0 0 0 0 0 0 0 0 0 0 0 0 0 0 0 0 0 0 0 0 0 0 0 0 0 0 0 0
0 0 0 0 0 0 0 0 0 0 0 0 0 0 0 0 0 0 0 0 0 0 0 0 0 0 0 0 0 0 0 0 0 0 0 0 0 0
0 0 0 0 0 0 0 0 0 0 0 0 0 0 0 0 0 0 0 0 0 0 0 0 0 0 0 0 0 0 0 0 0 0 0 0 0 0
0 0 0 0 0 0 0 0 0 0 0 0 0 0 0 0 0 0 0 0 0 0 0 0 0 0 0 0 0 0 0 0 0 0 0 0 0 0
0 0 0 -0 -0 -0 0 0 0 0 0 0 0 0 0 0 0 0 0 0 0 0 0 0 0 0 0 0 0 0 0 0 0 0 0 0 0 0
0 0 0 0 0 0 0 0 0 0 0 0 0 0 0 0 0 0 0 0 0 0 0 0 0 0 0 0 0 0 0 0 0 0 0 0 0 0
0 0 0 0 0 0 0 0 0 0 0 0 0 0 0 0 0 0 0 0 0 0 0 0 0 0 0 0 0 0 0 0 0 0 0 0 0 0
0 0 0 0 0 0 0 0 0 0 0 0 0 0 0 0 0 0 0 0 0 0 0 0 0 0 0 0 0 0 0 0 0 0 0 0 0 0
0 0 0 0 0 0 0 0 0 0 0 0 0 0 0 0 0 0 0 0 0 0 0 0 0 0 0 0 0 0 0 0 0 0 0 0 0 0
0 0 0 0 0 0 0 0 0 0 0 0 0 0 0 0 0 0 0 0 0 0 0 0 0 0 0 0 0 0 0 0 0 0 0 0 0 0
0 0 0 0 0 0 0 0 0 0 0 0 0 0 0 0 0 0 0 0 0 0 0 0 0 0 0 0 0 0 0 0 0 0 0 0 0 0
0 0 0 0 0 0 0 0 0 0 0 0 0 0 0 0 0 0 0 0 0 0 0 0 0 0 0 0 0 0 0 0 0 0 0 0 0 0
Wind_Speed_500mb
77 72 72 78 80 78 72 67 56 51 61 74 76 71 72 79 83 81 81 80 73 73 71 77 81 80 77 76 73 73 73 71 68 69 72 70 67 68
70 65 69 68 60 64 65 57 61 69 58 63 58 52 57 45 56 63 74 69 73 73 73 75 78 80 79 77 76 76 78 76 71 70 70 70 71 73
67 66 63 58 60 71 55 58 60 66 69 69 59 57 56 49 49 67 67 61 64 73 73 74 74 83 86 81 77 77 80 80 77 71 67 70 77 78
56 57 62 65 63 59 63 62 58 52 65 64 61 64 67 61 62 60 66 65 56 65 75 72 77 78 90 88 83 77 78 81 82 80 75 77 76 78
55 55 52 49 45 45 47 50 52 49 48 57 65 65 73 66 65 68 71 67 80 69 63 74 73 78 87 93 90 84 80 79 83 87 85 82 78 78
36 38 40 41 44 36 35 35 44 52 47 45 51 60 63 68 63 56 69 70 73 78 78 79 73 84 83 95 96 92 88 84 86 89 90 90 87 85
25 30 33 32 34 39 39 43 48 35 28 38 45 47 53 44 43 60 64 58 68 79 79 79 75 82 87 89 105 100 97 93 90 89 93 95 95 94
5 13 14 29 36 38 36 37 39 40 41 41 48 39 52 47 45 53 58 55 66 79 88 89 84 85 86 93 95 102 102 98 98 97 99 100 103 102
14 7 10 14 26 34 38 46 52 53 59 55 44 43 57 43 42 57 70 63 55 57 60 72 93 87 87 87 90 100 93 97 99 102 104 107 107 109
24 18 16 14 16 20 20 22 25 31 39 48 58 64 44 55 44 46 52 62 74 61 76 83 88 98 91 100 85 95 95 96 97 96 96 92 96 105
10 12 14 18 23 19 20 23 23 25 32 41 47 56 66 67 56 56 63 58 67 68 67 81 71 73 90 91 80 83 90 89 96 95 92 91 90 88
22 22 23 22 20 20 25 27 30 30 31 33 37 46 52 55 59 63 59 60 68 72 65 72 70 75 66 70 85 86 83 93 97 93 90 84 83 85
35 30 25 23 20 18 19 24 28 32 32 36 39 37 38 45 56 66 60 64 76 76 69 64 66 66 69 54 69 87 84 88 86 80 79 79 78 74
39 36 35 35 26 19 20 22 24 30 31 34 37 38 40 40 44 54 64 62 66 66 65 67 71 72 73 72 78 68 77 86 80 76 75 80 75 70
36 33 28 27 29 27 31 32 26 27 31 33 37 36 36 40 41 43 51 60 59 58 63 76 71 67 69 67 74 85 74 76 76 69 70 67 65 66
40 36 33 33 32 31 32 31 27 27 31 36 39 39 37 37 36 36 43 51 56 60 59 59 72 68 71 73 70 78 80 73 64 68 60 58 58 51
41 37 39 42 45 45 44 44 37 33 34 36 38 39 38 35 34 36 40 45 54 56 60 62 59 66 66 67 71 76 70 69 66 62 63 61 62 58
39 42 46 48 50 53 54 54 49 45 41 40 38 39 38 34 35 37 43 43 47 50 54 57 60 62 62 62 62 66 65 62 64 61 64 67 67 61
45 45 46 47 49 49 48 48 51 49 46 44 43 41 41 39 38 39 41 44 46 45 49 50 55 62 67 70 62 64 60 60 64 61 68 72 70 67
52 52 50 49 49 50 48 48 48 50 49 48 44 40 40 40 41 37 37 39 40 41 44 48 50 58 69 71 64 56 54 53 61 68 73 66 55 55
54 53 52 50 48 46 47 47 47 46 46 47 45 42 39 37 37 35 36 33 34 36 41 44 49 53 60 59 46 40 39 41 43 60 66 64 57 55
50 51 51 51 49 48 47 46 47 47 48 47 47 43 39 36 36 34 31 30 28 31 36 37 41 44 48 53 48 49 46 39 35 41 49 62 72 54
48 49 50 50 52 54 52 50 49 49 48 48 47 47 43 37 30 26 25 24 23 28 33 37 38 37 42 44 44 54 56 53 52 52 46 44 50 41
Wind_Direction_500mb
248 245 249 251 251 247 220 224 236 229 235 247 253 258 253 247 249 250 249 249 248 238 240 237 239 236 240 239 238 233 231 231 233 234 234 233 234 232
251 251 252 252 247 246 232 248 254 254 237 243 252 263 244 244 249 244 248 253 253 246 243 240 239 237 239 240 239 236 234 233 234 235 234 232 234 236
244 248 246 242 231 234 241 253 255 253 244 250 259 246 248 256 252 246 247 248 253 248 243 240 238 235 236 240 241 238 236 235 236 240 239 236 234 234
227 232 228 232 227 241 256 257 253 254 248 252 254 258 252 254 251 251 245 240 250 255 244 242 242 242 237 238 239 240 239 238 236 238 237 241 238 236
207 211 225 235 239 239 247 254 257 255 251 251 252 257 259 258 254 248 245 241 244 255 246 245 246 245 239 237 239 240 241 240 239 240 238 242 240 240
184 201 213 222 218 204 209 232 242 251 250 251 254 253 259 257 254 247 239 242 244 247 252 251 249 242 242 238 239 240 241 241 239 242 239 242 242 241
143 163 188 192 202 219 228 238 247 247 246 250 256 259 254 250 254 265 255 247 248 250 247 256 245 239 239 238 238 242 242 242 243 242 242 242 243 243
325 164 195 217 224 233 236 232 231 238 247 253 253 258 270 259 257 262 239 258 254 248 247 250 247 252 248 243 237 239 238 243 247 246 243 242 242 243
11 326 345 262 243 236 241 251 256 257 256 251 258 262 257 261 266 252 249 247 256 249 249 251 249 244 251 250 239 241 239 242 243 248 250 247 245 246
9 349 315 296 269 243 242 246 244 243 245 248 246 250 252 248 248 262 264 250 262 261 256 252 259 247 250 249 239 245 241 242 242 245 247 250 251 251
345 323 322 311 310 293 269 260 256 247 246 245 246 247 250 253 254 251 250 252 252 248 256 250 245 256 241 234 237 242 248 244 244 243 247 250 251 252
8 353 340 330 324 309 296 285 277 268 255 249 251 246 246 246 248 248 252 248 252 249 252 243 253 255 250 246 247 240 247 250 246 248 247 248 248 250
9 2 356 347 345 332 313 296 289 277 271 270 263 258 251 248 244 240 246 247 250 250 256 248 262 251 245 248 247 236 243 246 241 242 246 244 246 244
7 6 4 0 359 346 320 305 293 291 286 284 277 268 264 256 245 241 238 244 252 256 257 260 263 253 246 244 240 244 245 238 237 241 239 239 240 238
13 9 1 350 351 338 321 323 312 307 307 301 294 286 276 270 263 250 241 242 249 252 249 253 258 252 259 249 252 245 238 231 233 238 235 232 226 224
0 357 356 0 1 355 351 350 341 327 320 313 305 299 293 286 275 267 257 249 254 252 250 254 253 250 253 249 253 247 244 230 237 233 223 221 220 221
352 349 353 356 356 357 359 356 351 339 325 316 309 302 293 288 285 270 261 251 254 255 256 252 250 251 246 248 245 242 241 238 235 227 220 212 209 209
354 359 -0 1 360 358 356 354 352 347 338 326 317 311 303 293 284 274 268 261 257 255 256 254 248 241 236 236 235 237 234 233 224 216 215 210 203 202
16 13 7 1 359 356 353 353 350 345 340 333 323 316 307 297 286 275 271 262 259 260 259 255 249 238 230 225 226 227 233 226 221 212 209 209 204 199
25 18 10 3 358 354 351 348 346 347 343 336 329 319 311 302 290 278 272 265 257 258 261 256 247 239 233 233 226 226 221 218 211 206 198 204 208 206
21 19 16 11 6 358 353 349 345 345 344 340 332 323 314 305 293 282 272 265 255 250 254 255 251 243 236 238 229 209 205 202 219 212 202 196 190 190
17 15 13 12 9 5 1 356 351 349 346 345 340 332 323 314 300 289 277 267 259 257 253 251 246 238 229 225 217 201 181 179 190 204 205 201 185 178
10 9 7 8 8 5 1 0 358 354 352 349 346 342 332 317 306 293 282 269 258 249 242 231 220 219 223 218 214 187 179 176 176 180 183 198 196 195
Wind_Speed_850mb
77 72 72 78 80 78 72 67 56 51 61 74 76 71 72 79 83 81 81 80 73 73 71 77 81 80 77 76 73 73 73 71 68 69 72 70 67 68
70 65 69 68 60 64 65 57 61 69 58 63 58 52 57 45 56 63 74 69 73 73 73 75 78 80 79 77 76 76 78 76 71 70 70 70 71 73
67 66 63 58 60 71 55 58 60 66 69 69 59 57 56 49 49 67 67 61 64 73 73 74 74 83 86 81 77 77 80 80 77 71 67 70 77 78
56 57 62 65 63 59 63 62 58 52 65 64 61 64 67 61 62 60 66 65 56 65 75 72 77 78 90 88 83 77 78 81 82 80 75 77 76 78
55 55 52 49 45 45 47 50 52 49 48 57 65 65 73 66 65 68 71 67 80 69 63 74 73 78 87 93 90 84 80 79 83 87 85 82 78 78
36 38 40 41 44 36 35 35 44 52 47 45 51 60 63 68 63 56 69 70 73 78 78 79 73 84 83 95 96 92 88 84 86 89 90 90 87 85
25 30 33 32 34 39 39 43 48 35 28 38 45 47 53 44 43 60 64 58 68 79 79 79 75 82 87 89 105 100 97 93 90 89 93 95 95 94
5 13 14 29 36 38 36 37 39 40 41 41 48 39 52 47 45 53 58 55 66 79 88 89 84 85 86 93 95 102 102 98 98 97 99 100 103 102
14 7 10 14 26 34 38 46 52 53 59 55 44 43 57 43 42 57 70 63 55 57 60 72 93 87 87 87 90 100 93 97 99 102 104 107 107 109
24 18 16 14 16 20 20 22 25 31 39 48 58 64 44 55 44 46 52 62 74 61 76 83 88 98 91 100 85 95 95 96 97 96 96 92 96 105
10 12 14 18 23 19 20 23 23 25 32 41 47 56 66 67 56 56 63 58 67 68 67 81 71 73 90 91 80 83 90 89 96 95 92 91 90 88
22 22 23 22 20 20 25 27 30 30 31 33 37 46 52 55 59 63 59 60 68 72 65 72 70 75 66 70 85 86 83 93 97 93 90 84 83 85
35 30 25 23 20 18 19 24 28 32 32 36 39 37 38 45 56 66 60 64 76 76 69 64 66 66 69 54 69 87 84 88 86 80 79 79 78 74
39 36 35 35 26 19 20 22 24 30 31 34 37 38 40 40 44 54 64 62 66 66 65 67 71 72 73 72 78 68 77 86 80 76 75 80 75 70
36 33 28 27 29 27 31 32 26 27 31 33 37 36 36 40 41 43 51 60 59 58 63 76 71 67 69 67 74 85 74 76 76 69 70 67 65 66
40 36 33 33 32 31 32 31 27 27 31 36 39 39 37 37 36 36 43 51 56 60 59 59 72 68 71 73 70 78 80 73 64 68 60 58 58 51
41 37 39 42 45 45 44 44 37 33 34 36 38 39 38 35 34 36 40 45 54 56 60 62 59 66 66 67 71 76 70 69 66 62 63 61 62 58
39 42 46 48 50 53 54 54 49 45 41 40 38 39 38 34 35 37 43 43 47 50 54 57 60 62 62 62 62 66 65 62 64 61 64 67 67 61
45 45 46 47 49 49 48 48 51 49 46 44 43 41 41 39 38 39 41 44 46 45 49 50 55 62 67 70 62 64 60 60 64 61 68 72 70 67
52 52 50 49 49 50 48 48 48 50 49 48 44 40 40 40 41 37 37 39 40 41 44 48 50 58 69 71 64 56 54 53 61 68 73 66 55 55
54 53 52 50 48 46 47 47 47 46 46 47 45 42 39 37 37 35 36 33 34 36 41 44 49 53 60 59 46 40 39 41 43 60 66 64 57 55
50 51 51 51 49 48 47 46 47 47 48 47 47 43 39 36 36 34 31 30 28 31 36 37 41 44 48 53 48 49 46 39 35 41 49 62 72 54
48 49 50 50 52 54 52 50 49 49 48 48 47 47 43 37 30 26 25 24 23 28 33 37 38 37 42 44 44 54 56 53 52 52 46 44 50 41
Wind_Direction_850mb
248 245 249 251 251 247 220 224 236 229 235 247 253 258 253 247 249 250 249 249 248 238 240 237 239 236 240 239 238 233 231 231 233 234 234 233 234 232
251 251 252 252 247 246 232 248 254 254 237 243 252 263 244 244 249 244 248 253 253 246 243 240 239 237 239 240 239 236 234 233 234 235 234 232 234 236
244 248 246 242 231 234 241 253 255 253 244 250 259 246 248 256 252 246 247 248 253 248 243 240 238 235 236 240 241 238 236 235 236 240 239 236 234 234
227 232 228 232 227 241 256 257 253 254 248 252 254 258 252 254 251 251 245 240 250 255 244 242 242 242 237 238 239 240 239 238 236 238 237 241 238 236
207 211 225 235 239 239 247 254 257 255 251 251 252 257 259 258 254 248 245 241 244 255 246 245 246 245 239 237 239 240 241 240 239 240 238 242 240 240
184 201 213 222 218 204 209 232 242 251 250 251 254 253 259 257 254 247 239 242 244 247 252 251 249 242 242 238 239 240 241 241 239 242 239 242 242 241
143 163 188 192 202 219 228 238 247 247 246 250 256 259 254 250 254 265 255 247 248 250 247 256 245 239 239 238 238 242 242 242 243 242 242 242 243 243
325 164 195 217 224 233 236 232 231 238 247 253 253 258 270 259 257 262 239 258 254 248 247 250 247 252 248 243 237 239 238 243 247 246 243 242 242 243
11 326 345 262 243 236 241 251 256 257 256 251 258 262 257 261 266 252 249 247 256 249 249 251 249 244 251 250 239 241 239 242 243 248 250 247 245 246
9 349 315 296 269 243 242 246 244 243 245 248 246 250 252 248 248 262 264 250 262 261 256 252 259 247 250 249 239 245 241 242 242 245 247 250 251 251
345 323 322 311 310 293 269 260 256 247 246 245 246 247 250 253 254 251 250 252 252 248 256 250 245 256 241 234 237 242 248 244 244 243 247 250 251 252
8 353 340 330 324 309 296 285 277 268 255 249 251 246 246 246 248 248 252 248 252 249 252 243 253 255 250 246 247 240 247 250 246 248 247 248 248 250
9 2 356 347 345 332 313 296 289 277 271 270 263 258 251 248 244 240 246 247 250 250 256 248 262 251 245 248 247 236 243 246 241 242 246 244 246 244
7 6 4 0 359 346 320 305 293 291 286 284 277 268 264 256 245 241 238 244 252 256 257 260 263 253 246 244 240 244 245 238 237 241 239 239 240 238
13 9 1 350 351 338 321 323 312 307 307 301 294 286 276 270 263 250 241 242 249 252 249 253 258 252 259 249 252 245 238 231 233 238 235 232 226 224
0 357 356 0 1 355 351 350 341 327 320 313 305 299 293 286 275 267 257 249 254 252 250 254 253 250 253 249 253 247 244 230 237 233 223 221 220 221
352 349 353 356 356 357 359 356 351 339 325 316 309 302 293 288 285 270 261 251 254 255 256 252 250 251 246 248 245 242 241 238 235 227 220 212 209 209
354 359 -0 1 360 358 356 354 352 347 338 326 317 311 303 293 284 274 268 261 257 255 256 254 248 241 236 236 235 237 234 233 224 216 215 210 203 202
16 13 7 1 359 356 353 353 350 345 340 333 323 316 307 297 286 275 271 262 259 260 259 255 249 238 230 225 226 227 233 226 221 212 209 209 204 199
25 18 10 3 358 354 351 348 346 347 343 336 329 319 311 302 290 278 272 265 257 258 261 256 247 239 233 233 226 226 221 218 211 206 198 204 208 206
21 19 16 11 6 358 353 349 345 345 344 340 332 323 314 305 293 282 272 265 255 250 254 255 251 243 236 238 229 209 205 202 219 212 202 196 190 190
17 15 13 12 9 5 1 356 351 349 346 345 340 332 323 314 300 289 277 267 259 257 253 251 246 238 229 225 217 201 181 179 190 204 205 201 185 178
10 9 7 8 8 5 1 0 358 354 352 349 346 342 332 317 306 293 282 269 258 249 242 231 220 219 223 218 214 187 179 176 176 180 183 198 196 195